Weather History for KCLT - August, 2003

Change the Weather History Date:

Thursday, August 28, 2003

  Actual Average Record
Temperature  
Mean Temperature 82 °F 76 °F  
Max Temperature 91 °F 86 °F 98 °F (1924)
Min Temperature 73 °F 66 °F 55 °F (1905)
Degree Days  
Heating Degree Days 0 0  
Month to date heating degree days 0  
Since 1 June heating degree days 3  
Since 1 July heating degree days 0  
Cooling Degree Days 16 11  
Month to date cooling degree days 350  
Year to date cooling degree days 1244  
Since 1 June cooling degree days 1081  
Growing Degree Days 32 (Base 50)    
Moisture  
Dew Point 75 °F    
Average Humidity 86    
Maximum Humidity 100    
Minimum Humidity 61    
Precipitation  
Precipitation 0.29 in 0.13 in 4.64 in (1893)
Month to date precipitation 3.85  
Year to date precipitation 28.23  
Snow  
Snow 0.00 in 0.00 in 0.00 in ()
Month to date snowfall 0.0  
Since 1 June snowfall 0.0  
Since 1 July snowfall 0.0  
Snow Depth -    
Sea Level Pressure  
Sea Level Pressure 30.10 in    
Wind  
Wind Speed 3 mph (SSW)    
Max Wind Speed 9 mph    
Max Gust Speed 24 mph    
Visibility 6 miles    
Events Rain , Thunderstorm    
T = Trace of Precipitation, MM = Missing Value Source: NWS Daily Summary

Daily Weather History Graph

Daily Weather History Graph

Search for Another Location

Airport or City:

Trip Planner

Search our weather history database for the weather conditions in past years. The results will help you decide how hot, cold, wet, or windy it might be!

Date:

Astronomy

Aug. 28, 2003 Rise Set
Actual Time 6:53 AM EDT 7:56 PM EDT
Civil Twilight 6:26 AM EDT 8:22 PM EDT
Nautical Twilight 5:55 AM EDT 8:53 PM EDT
Astronomical Twilight 5:23 AM EDT 9:25 PM EDT
Moon 7:40 AM EDT (8/28) 8:55 PM EDT (8/28)
Length of Visible Light 13h 55m
Length of Day
13h 03m
New Moon, 1% of the Moon is Illuminated
Aug 28
New Moon
Sep 3
First Quarter
Sep 10
Full
Sep 18
Last Quarter
Sep 25
New

Hourly Weather History & Observations

Time (EDT) Temp. Heat Index Dew Point Humidity Pressure Visibility Wind Dir Wind Speed Gust Speed Precip Events Conditions
12:51 AM 75.9 °F - 73.9 °F 94% 30.06 in 5.0 mi Calm Calm - N/A   Clear
1:51 AM 77.0 °F - 73.9 °F 90% 30.06 in 4.0 mi Calm Calm - N/A   Clear
2:51 AM 75.0 °F - 73.0 °F 94% 30.07 in 4.0 mi South 4.6 mph - N/A   Clear
3:51 AM 73.9 °F - 73.0 °F 97% 30.08 in 3.0 mi Calm Calm - N/A   Clear
4:51 AM 73.0 °F - 73.0 °F 100% 30.07 in 3.0 mi SSE 4.6 mph - N/A   Clear
5:51 AM 75.0 °F - 73.9 °F 96% 30.07 in 3.0 mi Calm Calm - N/A   Clear
6:51 AM 73.0 °F - 73.0 °F 100% 30.08 in 2.0 mi Calm Calm - N/A   Scattered Clouds
7:51 AM 75.0 °F - 75.0 °F 100% 30.10 in 2.0 mi South 4.6 mph - N/A   Overcast
8:51 AM 78.1 °F - 75.9 °F 93% 30.12 in 3.0 mi South 5.8 mph - N/A   Overcast
9:51 AM 81.0 °F 87.9 °F 77.0 °F 88% 30.13 in 4.0 mi South 4.6 mph - N/A   Overcast
10:51 AM 84.0 °F 93.7 °F 77.0 °F 79% 30.14 in 6.0 mi Variable 3.5 mph - N/A   Haze
11:51 AM 86.0 °F 98.3 °F 78.1 °F 77% 30.14 in 7.0 mi Variable 3.5 mph - N/A   Overcast
12:51 PM 88.0 °F 100.2 °F 77.0 °F 70% 30.12 in 7.0 mi Variable 5.8 mph - N/A   Mostly Cloudy
1:51 PM 90.0 °F 100.2 °F 75.0 °F 61% 30.09 in 9.0 mi Variable 6.9 mph - N/A   Mostly Cloudy
2:51 PM 90.0 °F 100.2 °F 75.0 °F 61% 30.08 in 10.0 mi Variable 5.8 mph - N/A   Mostly Cloudy
3:51 PM 86.0 °F 96.0 °F 75.9 °F 72% 30.07 in 9.0 mi SSW 6.9 mph - N/A   Mostly Cloudy
4:51 PM 89.1 °F 99.1 °F 75.0 °F 63% 30.05 in 10.0 mi SSW 6.9 mph - N/A   Mostly Cloudy
5:51 PM 86.0 °F 95.1 °F 75.0 °F 70% 30.06 in 10.0 mi SSW 3.5 mph - N/A   Mostly Cloudy
6:51 PM 84.0 °F 93.7 °F 77.0 °F 79% 30.06 in 10.0 mi SSW 3.5 mph - N/A   Mostly Cloudy
7:51 PM 81.0 °F 87.3 °F 75.9 °F 85% 30.05 in 10.0 mi South 3.5 mph - N/A   Mostly Cloudy
8:51 PM 81.0 °F 86.7 °F 75.0 °F 82% 30.07 in 9.0 mi South 5.8 mph - N/A   Scattered Clouds
9:06 PM 80.6 °F 86.2 °F 75.2 °F 84% 30.11 in 9.0 mi South 6.9 mph - N/A Thunderstorm Thunderstorm
9:44 PM 75.2 °F - 69.8 °F 83% 30.13 in 1.8 mi WSW 9.2 mph 24.2 mph 0.16 in Rain , Thunderstorm Heavy Thunderstorms and Rain
9:51 PM 73.0 °F - 71.1 °F 93% 30.11 in 1.8 mi WSW 5.8 mph - 0.29 in Rain , Thunderstorm Heavy Thunderstorms and Rain
10:09 PM 77.0 °F - 73.4 °F 89% 30.14 in 5.0 mi WNW 5.8 mph - 0.13 in Rain , Thunderstorm Light Thunderstorms and Rain
10:51 PM 75.0 °F - 73.9 °F 96% 30.12 in 6.0 mi South 4.6 mph - N/A Thunderstorm Mostly Cloudy
11:03 PM 75.2 °F - 75.2 °F 100% 30.15 in 6.0 mi Calm Calm - N/A   Mostly Cloudy
11:23 PM 77.0 °F - 75.2 °F 94% 30.15 in 7.0 mi Calm Calm - N/A Thunderstorm Thunderstorm
11:51 PM 75.0 °F - 75.0 °F 100% 30.13 in 7.0 mi West 3.5 mph - N/A Thunderstorm Thunderstorm